Location: Blairvadach
(56.2780°N, 6.9720°W)
Time: 13:22:39
(UTC+01:00)

OTV 5 (USA 277) - Pass Details

Date: 30 April 2019
Orbit: 310 x 325 km, 54.5° (Epoch: 08 May)

Event Time Altitude Azimuth Distance (km) Brightness Sun altitude
Rises 22:01:49 0° 258° (WSW) 2,038 ? -7.2°
Reaches altitude 10° 22:03:48 10° 254° (WSW) 1,209 ? -7.4°
Maximum altitude 22:06:26 57° 175° (S) 375 ? -7.7°
Drops below altitude 10° 22:09:04 10° 95° (E) 1,208 ? -7.9°
Enters shadow 22:09:31 - 94° (E) 1,398 ? -8.0°
